TimeEST,TemperatureF,Dew PointF,Humidity,Sea Level PressureIn,VisibilityMPH,Wind Direction,Wind SpeedMPH,Gust SpeedMPH,PrecipitationIn,Events,Conditions,WindDirDegrees,DateUTC
12:52 AM,1.0,-2.9,83,30.20,10.0,NNE,3.5,-,N/A,,Clear,30,2013-01-06 05:52:00
1:52 AM,1.9,-2.0,83,30.20,10.0,Calm,Calm,-,N/A,,Clear,0,2013-01-06 06:52:00
2:52 AM,5.0,-0.0,80,30.19,10.0,Calm,Calm,-,N/A,,Mostly Cloudy,0,2013-01-06 07:52:00
3:52 AM,6.1,1.9,83,30.12,10.0,Calm,Calm,-,N/A,,Mostly Cloudy,0,2013-01-06 08:52:00
4:52 AM,7.0,3.0,84,30.10,10.0,Calm,Calm,-,N/A,,Overcast,0,2013-01-06 09:52:00
5:52 AM,8.1,3.9,83,30.10,10.0,Calm,Calm,-,N/A,,Overcast,0,2013-01-06 10:52:00
6:52 AM,9.0,5.0,84,30.07,9.0,Calm,Calm,-,N/A,,Overcast,0,2013-01-06 11:52:00
7:52 AM,10.0,5.0,80,30.06,2.5,Calm,Calm,-,0.00,Snow,Light Snow,0,2013-01-06 12:52:00
7:59 AM,10.4,5.0,79,29.97,4.0,Calm,Calm,-,0.00,Snow,Light Snow,0,2013-01-06 12:59:00
8:25 AM,10.4,6.8,85,29.96,2.0,Calm,Calm,-,0.00,Snow,Light Snow,0,2013-01-06 13:25:00
8:34 AM,10.4,6.8,85,29.96,1.8,Calm,Calm,-,0.00,Snow,Light Snow,0,2013-01-06 13:34:00
8:52 AM,10.9,7.0,84,30.05,1.8,Calm,Calm,-,0.00,Snow,Light Snow,0,2013-01-06 13:52:00
9:52 AM,12.9,8.1,81,30.04,8.0,Calm,Calm,-,0.00,,Overcast,0,2013-01-06 14:52:00
10:52 AM,16.0,9.0,74,30.00,10.0,Calm,Calm,-,N/A,,Overcast,0,2013-01-06 15:52:00
11:52 AM,18.0,10.9,74,29.96,9.0,Calm,Calm,-,N/A,,Overcast,0,2013-01-06 16:52:00
12:23 PM,19.4,12.2,74,29.87,4.0,Calm,Calm,-,N/A,,Haze,0,2013-01-06 17:23:00
12:52 PM,19.9,14.0,78,29.95,4.0,Calm,Calm,-,N/A,,Haze,0,2013-01-06 17:52:00
1:02 PM,21.2,15.8,80,29.87,1.8,Calm,Calm,-,0.00,Snow,Light Snow,0,2013-01-06 18:02:00
1:11 PM,21.2,15.8,80,29.87,2.0,Calm,Calm,-,0.00,Snow,Light Snow,0,2013-01-06 18:11:00
1:22 PM,21.2,15.8,80,29.87,7.0,Calm,Calm,-,0.00,,Overcast,0,2013-01-06 18:22:00
1:52 PM,23.0,17.1,78,29.93,2.0,Calm,Calm,-,0.00,Snow,Light Snow,0,2013-01-06 18:52:00
1:59 PM,23.0,17.6,80,29.85,1.5,Calm,Calm,-,0.00,Snow,Light Snow,0,2013-01-06 18:59:00
2:19 PM,23.0,17.6,80,29.85,2.5,Calm,Calm,-,0.00,Snow,Light Snow,0,2013-01-06 19:19:00
2:30 PM,23.0,17.6,80,29.85,3.0,Calm,Calm,-,0.00,Snow,Light Snow,0,2013-01-06 19:30:00
2:52 PM,24.1,19.0,81,29.92,4.0,Calm,Calm,-,0.00,Snow,Light Snow,0,2013-01-06 19:52:00
3:11 PM,24.8,19.4,80,29.85,3.0,Calm,Calm,-,0.00,Snow,Light Snow,0,2013-01-06 20:11:00
3:39 PM,24.8,19.4,80,29.85,2.5,Calm,Calm,-,0.00,Snow,Light Snow,0,2013-01-06 20:39:00
3:47 PM,24.8,19.4,80,29.85,5.0,Calm,Calm,-,0.00,,Haze,0,2013-01-06 20:47:00
3:52 PM,25.0,19.9,81,29.91,5.0,Calm,Calm,-,0.00,Snow,Light Snow,0,2013-01-06 20:52:00
4:02 PM,24.8,19.4,80,29.85,2.5,Calm,Calm,-,0.00,Snow,Light Snow,0,2013-01-06 21:02:00
4:47 PM,24.8,21.2,86,29.84,3.0,Calm,Calm,-,0.00,Snow,Light Snow,0,2013-01-06 21:47:00
4:52 PM,24.1,21.0,88,29.91,2.5,Calm,Calm,-,0.00,Snow,Light Snow,0,2013-01-06 21:52:00
5:22 PM,24.8,21.2,86,29.85,2.0,Calm,Calm,-,0.00,Snow,Light Snow,0,2013-01-06 22:22:00
5:39 PM,23.0,19.4,86,29.85,3.0,Calm,Calm,-,0.01,Snow,Light Snow,0,2013-01-06 22:39:00
5:52 PM,24.1,19.9,84,29.92,4.0,Calm,Calm,-,0.01,Snow,Light Snow,0,2013-01-06 22:52:00
6:12 PM,24.8,21.2,86,29.85,2.5,Calm,Calm,-,0.00,Snow,Light Snow,0,2013-01-06 23:12:00
6:20 PM,23.0,21.2,93,29.86,3.0,Calm,Calm,-,0.00,Snow,Light Snow,0,2013-01-06 23:20:00
6:32 PM,24.8,21.2,86,29.86,2.0,Calm,Calm,-,0.00,Snow,Light Snow,0,2013-01-06 23:32:00
6:48 PM,24.8,21.2,86,29.86,1.8,Calm,Calm,-,0.00,Snow,Light Snow,0,2013-01-06 23:48:00
6:52 PM,24.1,21.0,88,29.93,1.5,Calm,Calm,-,0.00,Snow,Light Snow,0,2013-01-06 23:52:00
7:05 PM,24.8,21.2,86,29.86,1.2,Calm,Calm,-,0.01,Snow,Light Snow,0,2013-01-07 00:05:00
7:12 PM,24.8,21.2,86,29.86,2.0,Calm,Calm,-,0.01,Snow,Light Snow,0,2013-01-07 00:12:00
7:33 PM,24.8,21.2,86,29.87,1.5,Calm,Calm,-,0.01,Snow,Light Snow,0,2013-01-07 00:33:00
7:50 PM,24.8,21.2,86,29.87,1.2,Calm,Calm,-,0.02,Snow,Light Snow,0,2013-01-07 00:50:00
7:52 PM,24.1,21.0,88,29.94,1.2,Calm,Calm,-,0.02,Snow,Light Snow,0,2013-01-07 00:52:00
8:43 PM,24.8,21.2,86,29.86,1.0,Calm,Calm,-,0.02,Snow,Light Snow,0,2013-01-07 01:43:00
8:52 PM,24.1,21.0,88,29.93,1.0,Calm,Calm,-,0.02,Snow,Light Snow,0,2013-01-07 01:52:00
9:09 PM,24.8,21.2,86,29.86,1.5,Calm,Calm,-,0.01,Snow,Light Snow,0,2013-01-07 02:09:00
9:18 PM,24.8,21.2,86,29.86,1.2,Calm,Calm,-,0.01,Snow,Light Snow,0,2013-01-07 02:18:00
9:30 PM,24.8,21.2,86,29.86,2.0,Calm,Calm,-,0.01,Snow,Light Snow,0,2013-01-07 02:30:00
9:48 PM,24.8,21.2,86,29.86,1.5,Calm,Calm,-,0.01,Snow,Light Snow,0,2013-01-07 02:48:00
9:52 PM,24.1,21.0,88,29.93,1.8,Calm,Calm,-,0.01,Snow,Light Snow,0,2013-01-07 02:52:00
9:57 PM,24.8,21.2,86,29.86,3.0,Calm,Calm,-,0.00,Snow,Light Snow,0,2013-01-07 02:57:00
10:52 PM,24.1,21.0,88,29.93,5.0,Calm,Calm,-,0.00,,Overcast,0,2013-01-07 03:52:00
11:38 PM,24.8,21.2,86,29.87,5.0,Calm,Calm,-,0.01,,Overcast,0,2013-01-07 04:38:00
11:52 PM,25.0,21.9,88,29.93,4.0,Calm,Calm,-,0.01,Snow,Light Snow,0,2013-01-07 04:52:00